Liberty Grace — WADN — position and weather

sailwx.info

Track history (hours):
 
Tides and Currents Weather Stations Pressure Air Temp Water Temp Dewpoint Dewpoint Depression Visibility Wind Speed Wind Dir Waves Ship Positions

Liberty Grace

Owner: Liberty Shipping Group, LLC, LAKE SUCCESS, NY. More information available from US FCC via Universal Licensing System and Coast Guard Vessel Documentation Center.

Last reported at 2014-Sep-04 12:00 UTC. Time now 2014-Oct-26 07:08 UTC.
Position N 35°24' E 017°48'.
Warning: this ship's position is 51 days out of date.

Type: Cargo ship. MMSI: 338219000.

Wind from 270 at 16 knots

Waves 1.5 meters (5 feet), 5 second period

Barometer 1012.7 mb
Air temperature 27.0 ° C
Visibility: greater than 5.4 NM
Dewpoint 21.0 ° C
Water temperature 30.0 ° C

Date/timePositionNaut miles runAvg speedWind from/ knotsBaromVisibWave heightAir tempDewpointWater temp
2014-Sep-04 12:00N 35°24' E 017°48'17115.0 270 / 161012.7 5.4 1.527.021.030.0
2014-Sep-04 00:33N 36°21' E 014°29'1414.5
2014-Sep-03 23:34N 36°25' E 014°12'1614.7
2014-Sep-03 22:29N 36°30' E 013°53'2115.0
2014-Sep-03 21:05N 36°36' E 013°28'1114.7
2014-Sep-03 20:19N 36°39' E 013°14'4514.3
2014-Sep-03 17:09N 36°54' E 012°21'1114.6
2014-Sep-03 16:23N 36°58' E 012°08'1214.2
2014-Sep-03 15:33N 37°03' E 011°55'1414.2
2014-Sep-03 14:33N 37°10' E 011°39'39313.9
2014-Sep-02 10:22N 37°02' E 003°27'1213.6
2014-Sep-02 09:27N 37°01' E 003°12'1213.3
2014-Sep-02 08:31N 36°60' E 002°56'1414.1
2014-Sep-02 07:32N 36°58' E 002°39'1414.4
2014-Sep-02 06:32N 36°55' E 002°21'4414.4
2014-Sep-02 03:31N 36°49' E 001°27'1514.9
2014-Sep-02 02:31N 36°46' E 001°09'1413.3
2014-Sep-02 01:29N 36°44' E 000°52'2014.3
2014-Sep-02 00:05N 36°42' E 000°27'814.8
2014-Sep-01 23:33N 36°41' E 000°17'1414.4
2014-Sep-01 22:33N 36°38' W 000°00'1413.7
2014-Sep-01 21:33N 36°37' W 000°17'1414.0
2014-Sep-01 20:31N 36°34' W 000°35'1313.1
2014-Sep-01 19:33N 36°33' W 000°51'1513.4
2014-Sep-01 18:25N 36°30' W 001°09'1414.1
2014-Sep-01 17:26N 36°28' W 001°26'1312.6
2014-Sep-01 16:23N 36°26' W 001°43'5813.2
2014-Sep-01 12:00N 36°18' W 002°54'11514.8 120 / 111016.0 5.4 1.026.523.626.0
2014-Sep-01 04:12N 35°60' W 005°15'1015.1
2014-Sep-01 03:32N 35°57' W 005°27'13513.1
2014-Aug-31 17:13N 36°03' W 008°13'913.7
2014-Aug-31 16:33N 36°04' W 008°24'1413.8
2014-Aug-31 15:33N 36°07' W 008°41'1414.5
2014-Aug-31 14:33N 36°11' W 008°58'1414.0
2014-Aug-31 13:33N 36°14' W 009°15'1413.9
2014-Aug-31 12:34N 36°17' W 009°32'1613.9
2014-Aug-31 11:26N 36°20' W 009°51'1313.8
2014-Aug-31 10:30N 36°23' W 010°06'1313.4
2014-Aug-31 09:33N 36°26' W 010°22'45813.6
2014-Aug-30 00:00N 37°36' W 019°48'3914.5 320 / 221020.610.8 1.023.021.526.0
2014-Aug-29 21:20N 37°42' W 020°36'1213.4
2014-Aug-29 20:27N 37°43' W 020°51'1213.4
2014-Aug-29 19:33N 37°44' W 021°06'1413.5
2014-Aug-29 18:33N 37°46' W 021°23'1313.5
2014-Aug-29 17:33N 37°47' W 021°40'1413.5
2014-Aug-29 16:34N 37°48' W 021°57'1313.4
2014-Aug-29 15:33N 37°49' W 022°14'1413.6
2014-Aug-29 14:33N 37°50' W 022°31'1413.6
2014-Aug-29 13:33N 37°51' W 022°49'1413.5
2014-Aug-29 12:34N 37°51' W 023°06'1413.7
2014-Aug-29 11:33N 37°52' W 023°23'1413.7
2014-Aug-29 10:33N 37°54' W 023°40'1414.2
2014-Aug-29 09:33N 37°55' W 023°58'1413.9
2014-Aug-29 08:33N 37°56' W 024°16'1413.8
2014-Aug-29 07:33N 37°57' W 024°33'1414.1
2014-Aug-29 06:33N 37°58' W 024°51'1514.0
2014-Aug-29 05:29N 37°59' W 025°10'1314.0
2014-Aug-29 04:33N 37°60' W 025°26'1413.6
2014-Aug-29 03:33N 38°01' W 025°43'1414.0
2014-Aug-29 02:33N 38°02' W 026°01'1413.9
2014-Aug-29 01:33N 38°02' W 026°19'1414.0
2014-Aug-29 00:33N 38°03' W 026°37'1414.2
2014-Aug-28 23:34N 38°04' W 026°55'1413.8
2014-Aug-28 22:33N 38°04' W 027°12'1413.6
2014-Aug-28 21:33N 38°05' W 027°29'1313.3
2014-Aug-28 20:33N 38°06' W 027°46'1413.7
2014-Aug-28 19:33N 38°07' W 028°04'1414.0
2014-Aug-28 18:33N 38°08' W 028°21'1413.5
2014-Aug-28 17:33N 38°09' W 028°39'1313.5
2014-Aug-28 16:33N 38°10' W 028°56'1413.7
2014-Aug-28 15:33N 38°10' W 029°13'1413.7
2014-Aug-28 14:33N 38°09' W 029°30'1413.7
2014-Aug-28 13:33N 38°08' W 029°48'1414.2
2014-Aug-28 12:33N 38°07' W 030°06'1413.6
2014-Aug-28 11:33N 38°07' W 030°23'14712.7
2014-Aug-28 00:00N 38°06' W 033°30'16513.8 290 / 371013.0 5.4 2.524.022.528.0
2014-Aug-27 12:00N 38°00' W 037°00'8614.3 290 / 341017.2 5.4 2.025.023.528.0
2014-Aug-27 06:00N 37°48' W 038°48'16713.9 220 / 201020.010.8 1.524.022.528.0
2014-Aug-26 18:00N 37°36' W 042°18'7712.9 260 / 131024.0 5.4 1.527.024.928.0
2014-Aug-26 12:00N 37°24' W 043°54'24313.5 310 / 221025.610.8 1.525.023.528.0
2014-Aug-25 18:00N 36°42' W 048°54'   240 / 141020.0 5.4 2.025.524.128.0
Track history (hours):
 
Tides and Currents Weather Stations Pressure Air Temp Water Temp Dewpoint Dewpoint Depression Visibility Wind Speed Wind Dir Waves Ship Positions

Liberty Grace

Owner: Liberty Shipping Group, LLC, LAKE SUCCESS, NY. More information available from US FCC via Universal Licensing System and Coast Guard Vessel Documentation Center.

Last reported at 2014-Sep-04 12:00 UTC. Time now 2014-Oct-26 07:08 UTC.
Position N 35°24' E 017°48'.
Warning: this ship's position is 51 days out of date.

Type: Cargo ship. MMSI: 338219000.

Wind from 270 at 16 knots

Waves 1.5 meters (5 feet), 5 second period

Barometer 1012.7 mb
Air temperature 27.0 ° C
Visibility: greater than 5.4 NM
Dewpoint 21.0 ° C
Water temperature 30.0 ° C

Date/timePositionNaut miles runAvg speedWind from/ knotsBaromVisibWave heightAir tempDewpointWater temp
2014-Sep-04 12:00N 35°24' E 017°48'17115.0 270 / 161012.7 5.4 1.527.021.030.0
2014-Sep-04 00:33N 36°21' E 014°29'1414.5
2014-Sep-03 23:34N 36°25' E 014°12'1614.7
2014-Sep-03 22:29N 36°30' E 013°53'2115.0
2014-Sep-03 21:05N 36°36' E 013°28'1114.7
2014-Sep-03 20:19N 36°39' E 013°14'4514.3
2014-Sep-03 17:09N 36°54' E 012°21'1114.6
2014-Sep-03 16:23N 36°58' E 012°08'1214.2
2014-Sep-03 15:33N 37°03' E 011°55'1414.2
2014-Sep-03 14:33N 37°10' E 011°39'39313.9
2014-Sep-02 10:22N 37°02' E 003°27'1213.6
2014-Sep-02 09:27N 37°01' E 003°12'1213.3
2014-Sep-02 08:31N 36°60' E 002°56'1414.1
2014-Sep-02 07:32N 36°58' E 002°39'1414.4
2014-Sep-02 06:32N 36°55' E 002°21'4414.4
2014-Sep-02 03:31N 36°49' E 001°27'1514.9
2014-Sep-02 02:31N 36°46' E 001°09'1413.3
2014-Sep-02 01:29N 36°44' E 000°52'2014.3
2014-Sep-02 00:05N 36°42' E 000°27'814.8
2014-Sep-01 23:33N 36°41' E 000°17'1414.4
2014-Sep-01 22:33N 36°38' W 000°00'1413.7
2014-Sep-01 21:33N 36°37' W 000°17'1414.0
2014-Sep-01 20:31N 36°34' W 000°35'1313.1
2014-Sep-01 19:33N 36°33' W 000°51'1513.4
2014-Sep-01 18:25N 36°30' W 001°09'1414.1
2014-Sep-01 17:26N 36°28' W 001°26'1312.6
2014-Sep-01 16:23N 36°26' W 001°43'5813.2
2014-Sep-01 12:00N 36°18' W 002°54'11514.8 120 / 111016.0 5.4 1.026.523.626.0
2014-Sep-01 04:12N 35°60' W 005°15'1015.1
2014-Sep-01 03:32N 35°57' W 005°27'13513.1
2014-Aug-31 17:13N 36°03' W 008°13'913.7
2014-Aug-31 16:33N 36°04' W 008°24'1413.8
2014-Aug-31 15:33N 36°07' W 008°41'1414.5
2014-Aug-31 14:33N 36°11' W 008°58'1414.0
2014-Aug-31 13:33N 36°14' W 009°15'1413.9
2014-Aug-31 12:34N 36°17' W 009°32'1613.9
2014-Aug-31 11:26N 36°20' W 009°51'1313.8
2014-Aug-31 10:30N 36°23' W 010°06'1313.4
2014-Aug-31 09:33N 36°26' W 010°22'45813.6
2014-Aug-30 00:00N 37°36' W 019°48'3914.5 320 / 221020.610.8 1.023.021.526.0
2014-Aug-29 21:20N 37°42' W 020°36'1213.4
2014-Aug-29 20:27N 37°43' W 020°51'1213.4
2014-Aug-29 19:33N 37°44' W 021°06'1413.5
2014-Aug-29 18:33N 37°46' W 021°23'1313.5
2014-Aug-29 17:33N 37°47' W 021°40'1413.5
2014-Aug-29 16:34N 37°48' W 021°57'1313.4
2014-Aug-29 15:33N 37°49' W 022°14'1413.6
2014-Aug-29 14:33N 37°50' W 022°31'1413.6
2014-Aug-29 13:33N 37°51' W 022°49'1413.5
2014-Aug-29 12:34N 37°51' W 023°06'1413.7
2014-Aug-29 11:33N 37°52' W 023°23'1413.7
2014-Aug-29 10:33N 37°54' W 023°40'1414.2
2014-Aug-29 09:33N 37°55' W 023°58'1413.9
2014-Aug-29 08:33N 37°56' W 024°16'1413.8
2014-Aug-29 07:33N 37°57' W 024°33'1414.1
2014-Aug-29 06:33N 37°58' W 024°51'1514.0
2014-Aug-29 05:29N 37°59' W 025°10'1314.0
2014-Aug-29 04:33N 37°60' W 025°26'1413.6
2014-Aug-29 03:33N 38°01' W 025°43'1414.0
2014-Aug-29 02:33N 38°02' W 026°01'1413.9
2014-Aug-29 01:33N 38°02' W 026°19'1414.0
2014-Aug-29 00:33N 38°03' W 026°37'1414.2
2014-Aug-28 23:34N 38°04' W 026°55'1413.8
2014-Aug-28 22:33N 38°04' W 027°12'1413.6
2014-Aug-28 21:33N 38°05' W 027°29'1313.3
2014-Aug-28 20:33N 38°06' W 027°46'1413.7
2014-Aug-28 19:33N 38°07' W 028°04'1414.0
2014-Aug-28 18:33N 38°08' W 028°21'1413.5
2014-Aug-28 17:33N 38°09' W 028°39'1313.5
2014-Aug-28 16:33N 38°10' W 028°56'1413.7
2014-Aug-28 15:33N 38°10' W 029°13'1413.7
2014-Aug-28 14:33N 38°09' W 029°30'1413.7
2014-Aug-28 13:33N 38°08' W 029°48'1414.2
2014-Aug-28 12:33N 38°07' W 030°06'1413.6
2014-Aug-28 11:33N 38°07' W 030°23'14712.7
2014-Aug-28 00:00N 38°06' W 033°30'16513.8 290 / 371013.0 5.4 2.524.022.528.0
2014-Aug-27 12:00N 38°00' W 037°00'8614.3 290 / 341017.2 5.4 2.025.023.528.0
2014-Aug-27 06:00N 37°48' W 038°48'16713.9 220 / 201020.010.8 1.524.022.528.0
2014-Aug-26 18:00N 37°36' W 042°18'7712.9 260 / 131024.0 5.4 1.527.024.928.0
2014-Aug-26 12:00N 37°24' W 043°54'24313.5 310 / 221025.610.8 1.525.023.528.0
2014-Aug-25 18:00N 36°42' W 048°54'   240 / 141020.0 5.4 2.025.524.128.0

Dump ship's entire track history